Showing default

DODECAPOLE 2, 1510

Orbit data source: Space-Track

DODECAPOLE 2, 1510 is a payload satellite owned by NRL (US) in LEO that was launched on Fri, 13 Aug 1965 UTC via a THOR ABLESTAR launch vehicle from the Air Force Western Test Range (AFWTR). Payload-class satellites include a variety of spacecraft equipped with specific instruments for various scientific and technological missions. These include communications satellites like Starlink; space stations such as the ISS; scientific satellites like the Hubble; Earth observation satellites from companies like Planet Labs, Umbra, and HawkEye 360; GPS; miniature CubeSats for education and research; and military/defense satellites.

Loading next visibility...
Identifier
1510, 1965-065C
Orbit
LEO
Country
Flag of USUS
Related business
Manufacturer
NRL
Mission
Defense Calibration
Bus & Motor
NRL 9", Unknown motor
Mass
4 kg wet, 4 kg dry
Launch date (UTC)
1965-08-13 (60 years ago)
Launch vehicle
THOR ABLESTAR
Launch site
Air Force Western Test Range (AFWTR)
Object type
Payload
Rocket body
Debris
Shape & HBR
Sphere + 12 Rod, 7.6 m
Radar Cross Section
0.071 m², Large (>1 m²)

Expand to show TLE details & history
Last TLE update: 13 hours ago

TLE from 13 hours ago
0 DODECAPOLE 2
1 01510U 65065C   25261.13423246  .00003746  00000-0  21564-2 0  9990
2 01510  90.0605  23.0992 0034591 335.2707  24.6817 14.08755909994832
Epoch: 2025-09-18T03:13Z
TLE epoch observation values (Epoch: 2025-09-18T03:13:17.684Z)
Latitude
-0.00004°
Longitude
-22.52467°
Altitude
843.92 km
Speed
7.442 km/s
True Right ascension
01h 32m 23s
True Declination
0° 00' 00"
Sunlit
Object was in full shadow at epoch
Visualization orbit readout
Latitude
Unknown
Longitude
Unknown
Altitude
Unknown
Speed
Unknown
Apparent Right ascension
Unknown
Apparent Declination
Unknown
Sunlit
N/A
Visualization observer readout
Local Sidereal Time
09:02:20
Azimuth
Unknown
Elevation
Unknown
Doppler factor
Unknown
Orbital elements
Apogee altitude
885.636 km
Perigee altitude
835.557 km
Semi-major axis
7,238.734 km
Eccentricity
0.00346
Inclination
90.0605°
RAAN
23.0992°
Arg. of periapsis
335.2707°
True anomaly
24.84787°
Mean anomaly
24.6817°
Eccentric anomaly
24.76472°
Mean motion
3.52411 °/min
Orbital period
102.15 mins
BSTAR
0.0021564
Loading maneuver chart data...
Computing Atmospheric mass density...
Loading historical data...
Loading historical data...
Loading historical data...
Loading historical data...
Loading historical data...
Loading historical data...
Loading historical data...

Documentation

Showing up to 5 results
|